FW8840 Weather Reports


Display with metric or nautical units.
time (UTC)temp
F
wind
direction
speed
MPH
gust
MPH
rain 1hr
in
rain 24hr
in
rain mn
in
humidity
%
barometer
mb
20260507113524 66 338 1.0 4.0 0.00 0.00 0.00 81 1019.1
20260507112523 66 337 2.0 4.0 0.00 0.00 0.00 78 1019.2
20260507111523 67 292 1.0 4.0 0.00 0.00 0.00 76 1019.2
20260507110523 67 315 1.0 4.0 0.00 0.00 0.00 73 1019.2
20260507105523 67 338 2.0 4.0 0.00 0.00 0.00 72 1019.2
20260507104543 68 338 2.0 4.0 0.00 0.00 0.00 69 1019.1
20260507103543 68 310 1.0 3.0 0.00 0.00 0.00 64 1019.1
20260507102523 69 276 3.0 6.0 0.00 0.00 0.00 63 1019.2
20260507101603 69 292 2.0 4.0 0.00 0.00 0.00 64 1019.1
20260507100522 69 284 4.0 6.0 0.00 0.00 0.00 66 1019.2
20260507095522 69 280 4.0 6.0 0.00 0.00 0.00 62 1019.0
20260507094522 69 270 5.0 7.0 0.00 0.00 0.00 61 1018.7
20260507093543 70 286 5.0 7.0 0.00 0.00 0.00 62 1018.6
20260507092522 70 302 3.0 6.0 0.00 0.00 0.00 62 1018.3
20260507091522 70 273 3.0 6.0 0.00 0.00 0.00 63 1018.2
20260507090522 70 296 4.0 7.0 0.00 0.00 0.00 60 1018.1
20260507085522 70 310 4.0 5.0 0.00 0.00 0.00 59 1018.0
20260507084522 71 301 3.0 6.0 0.00 0.00 0.00 59 1017.9
20260507083523 71 316 3.0 5.0 0.00 0.00 0.00 59 1017.8
20260507082522 71 331 2.0 4.0 0.00 0.00 0.00 59 1017.7
20260507081522 71 279 3.0 6.0 0.00 0.00 0.00 58 1017.6
20260507080522 70 263 3.0 4.0 0.00 0.00 0.00 59 1017.6
20260507075522 69 273 2.0 4.0 0.00 0.00 0.00 60 1017.4
20260507074522 70 272 3.0 4.0 0.00 0.00 0.00 62 1017.4
20260507073522 70 309 2.0 4.0 0.00 0.00 0.00 61 1017.3
20260507072522 69 304 3.0 4.0 0.00 0.00 0.00 61 1017.2
20260507071522 69 345 2.0 4.0 0.00 0.00 0.00 63 1017.2
20260507070522 68 324 3.0 6.0 0.00 0.00 0.00 68 1017.2
20260507065522 68 297 3.0 4.0 0.00 0.00 0.00 68 1017.3
20260507064542 69 333 4.0 6.0 0.00 0.00 0.00 66 1017.4
20260507063522 70 295 3.0 5.0 0.00 0.00 0.00 65 1017.4
20260507062522 70 334 2.0 4.0 0.00 0.00 0.00 62 1017.3
20260507061602 70 311 1.0 4.0 0.00 0.00 0.00 65 1017.1
20260507060533 70 45 1.0 2.0 0.00 0.00 0.00 63 1017.1
20260507055521 69 45 0.0 2.0 0.00 0.00 0.00 68 1016.9
20260507054602 68 45 1.0 2.0 0.00 0.00 0.00 73 1017.1
20260507053622 66 45 0.0 2.0 0.00 0.00 0.00 77 1017.0
20260507052521 65 45 1.0 2.0 0.00 0.00 0.00 83 1016.8
20260507051521 63 56 1.0 3.0 0.00 0.00 0.00 83 1016.8
20260507050521 61 180 1.0 1.0 0.00 0.00 0.00 88 1016.8
20260507045521 58 180 2.0 4.0 0.00 0.00 0.00 91 1016.8
20260507044522 56 180 2.0 4.0 0.00 0.00 0.00 94 1016.8
20260507043522 55 184 3.0 4.0 0.00 0.00 0.00 95 1016.7
20260507042521 53 202 3.0 4.0 0.00 0.00 0.00 96 1016.7
20260507041521 53 202 2.0 5.0 0.00 0.00 0.00 96 1016.6
20260507040521 52 202 2.0 4.0 0.00 0.00 0.00 96 1016.6
20260507035521 52 202 1.0 2.0 0.00 0.00 0.00 96 1016.4
20260507034521 53 202 2.0 4.0 0.00 0.00 0.00 96 1016.4
20260507033521 53 202 3.0 4.0 0.00 0.00 0.00 96 1016.3
20260507032520 53 202 3.0 4.0 0.00 0.00 0.00 96 1016.3
20260507031520 53 202 3.0 4.0 0.00 0.00 0.00 96 1016.3
20260507030520 53 193 3.0 4.0 0.00 0.00 0.00 96 1016.2
20260507025520 53 180 0.0 1.0 0.00 0.00 0.00 96 1016.1
20260507024520 53 180 2.0 4.0 0.00 0.00 0.00 96 1016.0
20260507023542 53 180 2.0 4.0 0.00 0.00 0.00 96 1015.9
20260507022520 53 180 2.0 3.0 0.00 0.00 0.00 95 1015.9
20260507021520 54 180 3.0 4.0 0.00 0.00 0.00 96 1016.1
20260507020520 54 225 5.0 6.0 0.00 0.00 0.00 96 1015.9
20260507015520 54 209 3.0 5.0 0.00 0.00 0.00 96 1015.8
20260507014520 53 196 4.0 4.0 0.00 0.00 0.00 96 1015.9
20260507013520 53 180 1.0 2.0 0.00 0.00 0.00 95 1015.8
20260507012519 53 202 3.0 4.0 0.00 0.00 0.00 95 1015.8
20260507011541 54 202 1.0 4.0 0.00 0.00 0.00 94 1015.6
20260507010519 54 200 4.0 6.0 0.00 0.00 0.00 95 1015.6
20260507005520 54 202 5.0 6.0 0.00 0.00 0.00 95 1015.6
20260507004519 55 202 3.0 5.0 0.00 0.00 0.00 95 1015.4
20260507003519 55 202 4.0 5.0 0.00 0.00 0.00 95 1015.4
20260507002520 55 202 5.0 7.0 0.00 0.00 0.00 95 1015.4
20260507001539 54 202 2.0 4.0 0.00 0.00 0.00 95 1015.4
20260507000519 54 202 3.0 4.0 0.00 0.00 0.00 95 1015.5
20260506235519 54 202 2.0 3.0 0.00 0.00 0.00 94 1015.7
20260506234519 55 202 1.0 2.0 0.00 0.00 0.00 94 1015.7
20260506233519 55 202 1.0 4.0 0.00 0.00 0.00 94 1015.7
20260506232518 55 202 3.0 4.0 0.00 0.00 0.00 94 1015.7
20260506231518 54 202 2.0 4.0 0.00 0.00 0.00 94 1015.7
20260506230519 55 202 1.0 2.0 0.00 0.00 0.00 94 1015.7
20260506225538 55 202 3.0 5.0 0.00 0.00 0.00 94 1015.7
20260506224519 55 202 5.0 7.0 0.00 0.00 0.00 93 1015.7
20260506223519 55 202 3.0 5.0 0.00 0.00 0.00 93 1015.7
20260506222530 55 200 4.0 6.0 0.00 0.00 0.00 92 1015.8
20260506221530 55 217 5.0 7.0 0.00 0.00 0.00 92 1015.7
20260506220530 56 202 3.0 4.0 0.00 0.00 0.00 91 1015.9
20260506215530 56 201 5.0 6.0 0.00 0.00 0.00 90 1015.9
20260506214550 56 202 4.0 6.0 0.00 0.00 0.00 89 1015.9
20260506213530 56 202 4.0 6.0 0.00 0.00 0.00 88 1015.9
20260506212530 57 216 4.0 4.0 0.00 0.00 0.00 88 1015.9
20260506211530 57 202 4.0 5.0 0.00 0.00 0.00 88 1015.9
20260506210530 57 180 4.0 5.0 0.00 0.00 0.00 88 1016.1
20260506205530 57 202 4.0 6.0 0.00 0.00 0.00 88 1015.9
20260506204529 58 214 4.0 6.0 0.00 0.00 0.00 87 1015.9
20260506203529 58 202 5.0 6.0 0.00 0.00 0.00 89 1015.7
20260506202529 58 202 5.0 7.0 0.00 0.00 0.00 90 1015.8
20260506201529 59 202 4.0 4.0 0.00 0.00 0.00 90 1015.7
20260506200529 59 202 2.0 4.0 0.00 0.00 0.00 90 1015.6
20260506195529 59 214 3.0 4.0 0.00 0.00 0.00 90 1015.4
20260506194529 59 202 2.0 4.0 0.00 0.00 0.00 90 1015.3
20260506193529 60 202 2.0 4.0 0.00 0.00 0.00 90 1015.2
20260506192549 60 202 4.0 6.0 0.00 0.00 0.00 90 1015.2
20260506191529 60 198 5.0 7.0 0.00 0.00 0.00 91 1015.1
20260506190529 60 207 5.0 7.0 0.00 0.00 0.00 91 1015.1
20260506185529 60 199 5.0 7.0 0.00 0.00 0.00 90 1015.1
20260506184529 60 213 5.0 7.0 0.00 0.00 0.00 91 1015.0
20260506183529 60 218 5.0 7.0 0.00 0.00 0.00 90 1014.8
20260506182529 60 207 6.0 8.0 0.00 0.00 0.00 90 1014.8
20260506181528 61 217 5.0 7.0 0.00 0.00 0.00 89 1014.6
20260506180548 61 193 5.0 7.0 0.00 0.00 0.00 89 1014.4
20260506175529 61 186 4.0 6.0 0.00 0.00 0.00 89 1014.3
20260506174529 62 191 6.0 9.0 0.00 0.00 0.00 89 1014.2
20260506173528 62 185 6.0 9.0 0.00 0.00 0.00 88 1014.2
20260506172528 63 182 7.0 9.0 0.00 0.00 0.00 87 1014.2
20260506171528 64 179 7.0 10.0 0.00 0.00 0.00 85 1014.2
20260506170528 66 177 7.0 10.0 0.00 0.00 0.00 83 1014.2
20260506165528 67 177 7.0 9.0 0.00 0.00 0.00 80 1014.2
20260506164528 69 179 3.0 5.0 0.00 0.00 0.00 77 1014.2
20260506163528 70 165 3.0 6.0 0.00 0.00 0.00 74 1014.1
20260506162528 71 179 6.0 9.0 0.00 0.00 0.00 72 1014.0
20260506161528 71 173 6.0 10.0 0.00 0.00 0.00 69 1014.0
20260506160548 72 173 7.0 9.0 0.00 0.00 0.00 67 1013.9
20260506155528 73 169 6.0 11.0 0.00 0.00 0.00 64 1013.9
20260506154548 73 175 8.0 12.0 0.00 0.00 0.00 62 1014.0
20260506153528 74 179 7.0 10.0 0.00 0.00 0.00 61 1014.1
20260506152529 74 166 7.0 13.0 0.00 0.00 0.00 58 1014.0
20260506151528 75 180 8.0 12.0 0.00 0.00 0.00 57 1014.0
20260506150528 75 159 7.0 13.0 0.00 0.00 0.00 55 1014.0
20260506145528 76 171 8.0 14.0 0.00 0.00 0.00 54 1014.1
20260506144528 76 164 7.0 11.0 0.00 0.00 0.00 52 1014.1
20260506143528 77 177 7.0 14.0 0.00 0.00 0.00 50 1014.2
20260506142549 77 167 6.0 10.0 0.00 0.00 0.00 49 1014.3
20260506141528 77 162 6.0 10.0 0.00 0.00 0.00 49 1014.3
20260506140549 77 178 8.0 14.0 0.00 0.00 0.00 46 1014.4
20260506135528 77 170 8.0 12.0 0.00 0.00 0.00 46 1014.4
20260506134528 77 157 6.0 9.0 0.00 0.00 0.00 46 1014.5
20260506133548 77 191 9.0 15.0 0.00 0.00 0.00 45 1014.5
20260506132528 78 162 8.0 14.0 0.00 0.00 0.00 45 1014.6
20260506131548 78 148 7.0 13.0 0.00 0.00 0.00 45 1014.7
20260506130528 78 138 6.0 15.0 0.00 0.00 0.00 46 1014.8
20260506125548 78 145 7.0 11.0 0.00 0.00 0.00 45 1014.9
20260506124528 78 168 7.0 15.0 0.00 0.00 0.00 46 1015.0
20260506123528 78 175 8.0 14.0 0.00 0.00 0.00 45 1015.0
20260506122528 78 170 7.0 13.0 0.00 0.00 0.00 44 1015.1
20260506121528 78 170 7.0 11.0 0.00 0.00 0.00 45 1015.1
20260506120528 78 186 9.0 15.0 0.00 0.00 0.00 44 1015.1
20260506115528 79 146 7.0 11.0 0.00 0.00 0.00 43 1015.3
20260506114528 78 152 6.0 11.0 0.00 0.00 0.00 46 1015.5